Pittsfield, MA

1:03 PM EST on December 02, 2016 (GMT -0500)
Pittsfield Municipal

Weather History for KPSF - March, 2012

Change the Weather History Date:

Tuesday, March 13, 2012

  Actual Average Record
Temperature  
Mean Temperature 56 °F 31 °F  
Max Temperature 68 °F 41 °F 68 °F (2012)
Min Temperature 44 °F 21 °F 2 °F (1941)
Degree Days  
Heating Degree Days 9 34  
Month to date heating degree days 388 470  
Since 1 July heating degree days 4876 5850  
Cooling Degree Days 0 0  
Month to date cooling degree days 0 0  
Year to date cooling degree days 0 0  
Growing Degree Days 6 (Base 50)    
Moisture  
Dew Point 47 °F    
Average Humidity 75    
Maximum Humidity 100    
Minimum Humidity 49    
Precipitation  
Precipitation 0.20 in 0.08 in 1.34 in (1953)
Month to date precipitation 0.79 1.08  
Year to date precipitation 5.00 6.68  
Sea Level Pressure  
Sea Level Pressure 29.93 in    
Wind  
Wind Speed 4 mph (WSW)    
Max Wind Speed 18 mph    
Max Gust Speed 24 mph    
Visibility 8 miles    
Events Rain , Thunderstorm    
T = Trace of Precipitation, MM = Missing Value Source: NWS Daily Summary

Daily Weather History Graph

Daily Weather History Graph

Search for Another Location

Airport or City:

Trip Planner

Search our weather history database for the weather conditions in past years. The results will help you decide how hot, cold, wet, or windy it might be!

Date:

Astronomy

Mar. 13, 2012 Rise Set
Actual Time 7:07 AM EDT 6:57 PM EDT
Civil Twilight 6:39 AM EDT 7:25 PM EDT
Nautical Twilight 6:07 AM EDT 7:58 PM EDT
Astronomical Twilight 5:34 AM EDT 8:31 PM EDT
Moon 12:34 AM EDT (3/13) 10:10 AM EDT (3/13)
Length of Visible Light 12h 46m
Length of Day
11h 50m
Waning Gibbous, 66% of the Moon is Illuminated
Mar 13
Waning Gibbous
Mar 14
Last Quarter
Mar 22
New
Mar 30
First Quarter
Apr 6
Full

Hourly Weather History & Observations

Time (EDT) Temp. Windchill Dew Point Humidity Pressure Visibility Wind Dir Wind Speed Gust Speed Precip Events Conditions
12:54 AM 46.0 °F - 42.1 °F 86% 30.04 in 10.0 mi Calm Calm - 0.01 in   Overcast
1:54 AM 46.0 °F 44.8 °F 42.1 °F 86% 30.01 in 10.0 mi East 3.5 mph - 0.00 in Rain Light Rain
2:54 AM 46.0 °F - 42.1 °F 86% 30.01 in 10.0 mi Calm Calm - 0.00 in   Overcast
3:54 AM 45.0 °F - 43.0 °F 93% 29.98 in 7.0 mi Calm Calm - 0.01 in Rain Light Rain
4:54 AM 45.0 °F - 44.1 °F 97% 29.97 in 8.0 mi Calm Calm - 0.00 in   Overcast
5:54 AM 45.0 °F - 44.1 °F 97% 29.97 in 7.0 mi Calm Calm - N/A   Overcast
6:54 AM 45.0 °F - 44.1 °F 97% 29.96 in 7.0 mi Calm Calm - N/A   Overcast
8:01 AM 44.6 °F - 42.8 °F 93% 29.98 in 2.0 mi Calm Calm - N/A   Scattered Clouds
8:54 AM 46.0 °F - 45.0 °F 96% 29.96 in 4.0 mi Calm Calm - N/A   Mostly Cloudy
9:54 AM 51.1 °F - 46.0 °F 83% 29.94 in 10.0 mi North 3.5 mph - N/A   Partly Cloudy
10:54 AM 57.0 °F - 46.9 °F 69% 29.94 in 10.0 mi Variable 5.8 mph - N/A   Mostly Cloudy
11:54 AM 60.1 °F - 48.0 °F 64% 29.89 in 10.0 mi Variable 5.8 mph - N/A   Mostly Cloudy
12:54 PM 64.9 °F - 48.9 °F 56% 29.88 in 10.0 mi WSW 9.2 mph - N/A   Scattered Clouds
1:54 PM 68.0 °F - 48.9 °F 50% 29.85 in 10.0 mi SSW 13.8 mph 18.4 mph N/A   Scattered Clouds
2:54 PM 68.0 °F - 48.9 °F 50% 29.83 in 10.0 mi SW 9.2 mph 20.7 mph N/A   Mostly Cloudy
3:24 PM 66.2 °F - 48.2 °F 52% 29.86 in 2.5 mi SW 6.9 mph - N/A   Haze
3:32 PM 66.2 °F - 48.2 °F 52% 29.86 in 10.0 mi WSW 10.4 mph - N/A   Overcast
4:54 PM 66.0 °F - 50.0 °F 56% 29.84 in 10.0 mi WNW 9.2 mph - N/A   Clear
5:54 PM 64.9 °F - 48.9 °F 56% 29.84 in 10.0 mi Calm Calm - N/A   Scattered Clouds
6:54 PM 61.0 °F - 48.9 °F 64% 29.86 in 10.0 mi WNW 5.8 mph - N/A   Clear
7:54 PM 57.0 °F - 48.9 °F 74% 29.89 in 10.0 mi Calm Calm - N/A   Overcast
8:54 PM 53.1 °F - 48.0 °F 83% 29.91 in 10.0 mi WNW 3.5 mph - N/A   Mostly Cloudy
9:54 PM 53.1 °F - 46.9 °F 80% 29.91 in 10.0 mi West 3.5 mph - N/A   Mostly Cloudy
10:47 PM 51.8 °F - 46.4 °F 82% 29.94 in 10.0 mi Calm Calm - N/A Thunderstorm Mostly Cloudy
10:54 PM 52.0 °F - 46.9 °F 83% 29.92 in 10.0 mi West 8.1 mph - N/A Thunderstorm Thunderstorm
11:19 PM 53.6 °F - 46.4 °F 77% 29.96 in 1.8 mi Variable 4.6 mph - 0.14 in Rain , Thunderstorm Heavy Thunderstorms and Rain
11:29 PM 51.8 °F - 48.2 °F 88% 29.96 in 3.0 mi NE 3.5 mph - 0.18 in Rain , Thunderstorm Light Rain
11:47 PM 51.8 °F - 50.0 °F 94% 29.97 in 10.0 mi SSW 3.5 mph - 0.19 in   Overcast
11:54 PM 51.1 °F - 48.9 °F 92% 29.93 in 9.0 mi Calm Calm - 0.19 in   Overcast